Tracking 29528 objects as of 12-Sep-2024
HD Live streaming from Space Station
objects crossing your sky now

ONEWEB-0054

Track ONEWEB-0054 now!
10-day predictions
ONEWEB-0054 is classified as:


NORAD ID: 45158
Int'l Code: 2020-008AD
Perigee: 1,227.4 km
Apogee: 1,230.3 km
Inclination: 87.9 °
Period: 109.9 minutes
Semi major axis: 7599 km
RCS: Unknown
Launch date: February 6, 2020
Source: United Kingdom (UK)
Launch site: TYURATAM MISSILE AND SPACE COMPLEX (TTMTR)
Your satellite tracking list
Your tracking list is empty




NASA's NSSDC Master Catalog

Two Line Element Set (TLE):
1 45158U 20008AD  24256.15257394 -.00000446  00000-0 -13130-2 0  9994
2 45158  87.8985 164.2328 0001915  73.5454 286.5884 13.10371104224572
Source of the keplerian elements: AFSPC